Location: Albany
(35.0000°S, 118.0000°E)
Time: 23:47:26
(UTC-04:00)

Atlas Centaur 2 - Pass Details

Date: 26 August 2017
Orbit: 459 x 1313 km, 30.4° (Epoch: 25 September)

Event Time Altitude Azimuth Distance (km) Brightness Sun altitude
Exits shadow 16:19:59 22° 60° (ENE) 1,081 3.3 -28.2°
Drops below altitude 10° 16:21:29 10° 74° (ENE) 1,617 4.5 -27.9°
Sets 16:23:40 0° 81° (E) 2,483 5.8 -27.4°
